Snowfall_Accumulation
0.0 0.0 0.0 0.0 0.0 0.0 0.0 0.0 0.0 0.0 0.0 0.0 0.0 0.0 0.0 0.0 0.0 0.0 0.0 0.0 0.0 11.3 2.5 2.0 2.9 6.2 6.8 7.4 12.7 7.9 9.5 10.2 14.5 24.9 18.5 11.2 9.6 5.2 4.4 3.8 4.0 4.2 5.6 7.6 13.3 30.9 15.7 0.4 0.1 2.0 1.8 0.1 0.1 0.0
0.0 0.0 0.0 0.0 0.0 0.0 0.0 0.0 0.0 0.0 0.0 0.0 0.0 0.0 0.0 0.0 0.0 0.0 0.0 0.0 0.0 4.6 6.1 0.0 0.0 0.0 3.9 5.0 8.2 7.7 11.1 8.2 7.2 15.3 14.6 9.0 8.4 6.7 3.9 7.0 2.5 6.9 6.3 5.3 3.6 3.3 0.9 1.0 1.5 1.7 1.0 0.5 0.1 0.2
0.0 0.0 0.0 0.0 0.0 0.0 0.0 0.0 0.0 0.0 0.0 0.0 0.0 0.0 0.0 0.0 0.0 0.0 0.0 0.0 0.8 14.0 9.3 2.5 2.7 0.5 0.0 1.2 0.5 12.7 7.9 5.9 7.4 4.2 10.4 11.0 16.6 7.7 8.9 6.7 3.6 2.4 4.9 6.7 5.2 2.5 0.6 0.0 1.1 0.7 0.1 0.1 0.0 0.1
0.0 0.0 0.0 0.0 0.0 0.0 0.0 0.0 0.0 0.0 0.0 0.0 0.0 0.0 0.0 0.0 0.0 0.0 0.0 0.0 0.0 12.0 24.1 6.1 0.0 0.8 0.0 0.0 0.0 1.0 2.8 2.8 5.3 6.4 19.6 20.2 18.0 4.0 3.7 2.5 2.9 2.3 1.7 2.5 4.7 5.5 2.4 2.1 1.1 0.9 0.5 0.0 0.0 0.0
0.0 0.0 0.0 0.0 0.0 0.0 0.0 0.0 0.0 0.0 0.0 0.0 0.0 0.0 0.0 0.0 0.0 0.0 0.0 0.0 0.0 2.3 23.0 7.7 1.9 1.0 0.0 0.0 0.0 0.0 0.5 3.3 11.9 22.7 29.7 22.9 8.8 8.9 8.4 6.3 7.0 4.6 4.3 2.5 1.3 0.7 2.4 0.8 0.3 0.1 2.0 1.0 0.4 0.1
0.0 0.0 0.0 0.0 0.0 0.0 0.0 0.0 0.0 0.0 0.0 0.0 0.0 0.0 0.0 0.0 0.0 0.0 11.5 0.0 0.0 0.0 29.1 27.8 5.1 2.8 0.6 0.0 0.2 0.8 0.6 5.5 10.5 17.8 20.1 11.4 6.3 8.8 21.7 10.3 4.6 5.0 5.3 5.4 5.0 2.1 2.4 1.4 1.3 1.0 2.6 2.0 1.3 0.5
0.0 0.0 0.0 0.0 0.0 0.0 0.0 0.0 0.0 0.0 0.0 0.0 0.0 0.0 0.0 0.0 0.0 3.9 5.1 0.1 0.0 0.0 32.0 35.0 16.6 4.6 2.1 0.9 1.2 1.8 2.3 5.5 8.0 16.7 16.1 9.4 7.5 12.4 23.7 10.3 4.4 4.6 4.9 5.7 7.1 6.3 4.9 4.7 5.0 2.3 2.6 3.0 3.6 2.7
0.0 0.0 0.0 0.0 0.0 0.0 0.0 0.0 0.0 0.0 0.0 0.0 0.0 0.0 0.0 0.0 0.0 4.2 0.4 0.0 0.0 6.7 21.9 43.8 16.4 4.4 2.4 5.8 5.5 2.5 6.1 8.5 10.2 9.7 5.3 2.6 3.7 11.7 17.2 5.4 5.6 5.6 5.3 4.5 5.3 5.4 6.2 7.1 6.4 6.1 5.4 4.8 5.5 6.3
0.0 0.0 0.0 0.0 0.0 0.0 0.0 0.0 0.0 0.0 0.0 0.0 0.0 0.0 0.0 1.9 17.1 11.1 0.0 1.6 0.0 6.2 29.0 23.4 10.5 7.0 1.3 4.1 4.2 5.3 5.9 17.9 6.6 8.5 1.8 1.0 3.7 8.9 3.9 5.0 5.1 5.1 6.3 6.8 6.7 6.4 6.9 5.8 5.6 5.9 5.9 6.1 5.1 7.0
0.0 0.0 0.0 0.0 0.0 0.0 0.0 0.0 0.0 0.0 0.0 0.0 0.0 16.7 39.9 16.6 0.0 1.1 8.7 22.8 27.1 23.8 21.2 15.1 4.4 7.2 2.5 3.8 7.2 4.9 8.3 8.2 12.4 3.0 0.5 9.1 1.5 2.1 3.6 4.9 5.9 6.5 6.5 7.3 8.4 8.9 6.3 6.5 4.9 6.3 6.4 6.6 5.4 6.1
0.0 0.0 0.0 0.0 0.0 0.0 0.0 0.0 0.0 0.0 0.0 1.4 31.6 31.7 11.7 0.3 5.2 14.9 44.5 40.7 27.3 23.2 6.5 5.4 4.4 5.5 2.0 8.9 8.6 6.5 15.0 9.2 15.4 4.8 4.8 6.0 5.6 8.3 6.4 6.8 7.4 6.5 7.0 7.9 8.4 9.4 9.7 9.7 9.7 7.9 6.9 5.9 4.8 5.0
0.0 0.0 0.0 0.0 0.0 0.0 0.0 0.0 0.0 0.1 0.4 0.1 3.4 4.5 10.7 18.2 39.9 44.7 37.1 17.3 6.3 3.4 1.9 6.8 6.2 3.0 5.2 3.9 12.6 13.3 16.3 14.6 13.9 6.6 16.9 8.0 9.1 5.1 7.3 9.7 8.2 7.0 8.0 8.4 9.2 10.9 11.1 10.4 10.6 10.9 8.9 8.2 7.3 6.3
0.0 0.0 0.0 0.0 0.0 0.0 0.0 0.0 0.0 0.0 1.6 6.3 23.9 46.8 43.9 45.0 51.9 34.0 14.0 7.9 3.7 3.9 4.4 7.5 7.6 7.4 10.1 12.1 21.9 16.7 21.1 12.0 1.5 11.4 7.9 8.1 5.0 6.3 8.0 8.6 7.9 7.8 10.1 9.7 10.1 10.6 11.6 11.5 10.9 12.0 11.9 8.6 8.0 7.9
0.0 0.0 0.0 0.0 0.0 0.0 0.0 0.0 0.0 0.3 2.8 34.6 56.4 66.4 38.0 38.0 11.9 6.8 5.4 4.7 3.0 2.2 2.0 4.1 6.7 11.0 10.9 21.9 22.8 26.3 13.8 8.8 15.4 11.7 8.5 3.6 4.6 6.3 6.9 6.7 7.9 7.8 9.2 10.1 11.0 10.6 11.7 12.2 11.4 10.1 9.6 8.3 8.0 6.4
0.0 0.0 0.0 0.0 0.0 0.0 0.0 0.0 0.0 1.0 19.3 53.9 44.1 38.8 22.2 6.9 6.1 7.2 6.1 4.1 3.9 4.3 7.6 9.3 12.9 12.7 15.3 33.2 22.1 15.3 18.6 14.8 12.6 8.9 4.1 2.5 4.1 4.9 5.3 5.6 6.8 7.4 9.1 9.5 8.8 8.2 9.4 9.7 10.5 9.0 7.8 8.0 7.2 6.5
0.0 0.0 0.0 0.0 0.0 0.0 0.0 0.0 2.6 14.8 41.9 46.9 36.0 15.5 3.3 3.1 5.1 5.0 6.6 7.8 7.1 9.8 13.4 22.4 31.5 29.9 21.2 22.3 21.8 12.2 13.6 8.5 7.0 4.3 3.6 4.0 4.1 3.8 4.7 4.9 6.3 8.1 8.4 10.0 10.7 7.7 7.0 9.3 9.5 8.1 6.8 6.5 6.2 5.6
0.0 1.4 0.0 0.0 0.0 0.0 0.3 7.0 38.5 63.0 56.0 47.1 20.2 3.6 4.1 4.6 7.5 7.8 8.4 9.0 9.8 17.6 27.6 35.8 40.7 21.7 22.2 19.4 12.4 7.3 8.4 6.1 6.3 5.6 4.4 4.3 5.5 5.8 5.3 4.6 5.1 6.5 6.7 8.7 11.5 8.2 8.1 9.6 10.5 9.4 7.6 6.0 5.2 5.5
0.2 0.0 0.0 0.0 0.5 2.3 26.5 34.6 43.8 61.9 54.3 17.5 6.3 3.6 2.7 4.1 5.2 6.4 7.2 7.5 17.8 24.5 29.7 41.4 30.8 28.7 15.6 9.1 4.0 5.5 7.1 7.7 8.0 9.2 9.7 8.7 8.1 6.9 5.9 5.8 6.0 6.0 7.3 9.2 11.4 9.4 9.6 10.1 10.1 8.5 7.2 7.5 7.0 7.3
0.4 0.0 0.0 0.0 0.5 26.8 68.7 68.5 39.1 48.0 15.9 5.3 3.7 3.4 3.4 5.0 6.1 7.6 9.9 15.7 19.4 21.6 32.4 38.3 37.7 21.0 7.3 5.6 7.1 8.2 12.3 14.2 14.7 13.3 11.7 10.7 8.4 7.2 6.2 5.9 5.6 4.8 5.5 7.2 7.4 8.2 8.6 8.0 7.7 8.5 7.0 5.7 7.6 6.8
0.0 0.3 0.0 0.2 0.0 45.8 69.2 60.0 26.6 15.5 11.1 6.0 4.7 6.1 6.7 7.6 9.8 12.4 20.2 28.0 31.6 37.1 41.3 32.4 11.3 7.8 10.8 12.5 16.0 16.6 14.5 13.9 15.9 14.7 11.7 10.1 8.1 7.4 6.9 6.1 5.4 5.1 4.7 5.6 6.8 7.0 9.9 8.8 8.4 9.6 8.6 8.4 10.3 9.0
3.7 10.9 5.8 9.1 51.5 58.6 52.2 42.0 24.4 16.5 8.4 5.4 8.4 7.4 10.9 10.7 13.3 19.4 24.0 29.5 38.7 33.0 17.5 11.1 10.9 13.4 16.0 16.5 14.8 15.0 13.2 13.1 15.7 17.4 15.5 13.4 9.3 9.1 9.4 6.7 5.1 4.6 5.8 6.1 7.3 9.0 12.2 10.4 9.6 9.3 9.7 9.8 9.9 11.3
24.2 6.9 44.4 44.7 79.2 74.1 56.4 30.7 16.5 11.0 8.4 10.0 10.0 10.8 14.0 15.6 17.5 21.2 24.6 26.4 25.8 16.0 14.1 16.7 17.3 16.5 14.6 14.1 15.5 15.3 14.9 13.0 11.8 12.0 11.1 13.8 13.7 10.0 10.6 9.1 6.5 6.4 6.5 8.2 9.4 10.7 10.4 10.4 12.1 12.7 12.1 13.2 13.0 13.9
13.0 28.4 64.3 65.7 74.0 66.1 47.2 15.5 12.0 13.3 12.9 15.6 12.0 15.4 16.9 15.3 16.2 18.4 21.4 17.1 14.8 16.7 16.8 18.2 17.6 18.3 17.1 15.6 13.8 12.9 13.0 12.6 10.5 9.6 10.4 9.5 8.6 8.6 10.2 10.0 10.0 13.5 12.2 12.4 12.5 13.9 12.8 12.0 13.0 13.0 12.1 11.6 10.1 12.9
13.5 59.8 76.2 69.9 52.3 46.8 26.6 20.9 16.2 13.0 16.4 16.0 15.6 17.3 15.8 13.0 14.8 16.7 15.0 11.6 14.2 15.7 14.5 14.4 13.7 12.0 10.1 9.6 10.3 10.7 11.4 11.0 9.6 8.1 10.6 13.7 8.0 7.7 8.3 10.4 11.7 13.7 15.4 14.8 13.5 13.3 11.9 12.8 13.5 14.3 12.1 12.5 11.3 10.1
83.8 95.6 66.9 65.6 36.5 22.6 14.5 13.0 12.6 12.6 13.7 14.6 16.0 16.4 14.8 13.6 16.0 14.9 10.2 12.1 13.6 14.6 13.9 12.8 11.8 13.3 14.4 7.5 8.8 9.3 10.4 15.6 15.8 13.0 8.2 13.8 13.4 8.8 7.7 8.0 8.9 10.8 12.5 14.8 12.6 11.2 11.6 12.7 13.9 12.9 13.9 13.0 12.5 11.6
87.7 53.2 36.7 18.7 13.7 7.1 8.4 8.6 8.8 9.2 10.5 15.0 15.2 11.3 10.5 14.8 16.2 11.8 9.9 12.8 13.0 13.3 14.2 13.3 12.2 8.5 7.1 11.1 13.3 10.7 10.3 14.6 17.0 13.6 8.7 12.5 18.0 20.9 15.5 11.9 9.5 8.6 11.3 12.7 14.8 12.7 11.4 9.9 10.2 11.0 13.8 12.9 11.2 13.2
69.9 40.4 18.3 7.2 6.4 6.4 8.1 8.4 7.9 10.0 12.5 13.3 11.1 9.8 13.0 17.9 8.8 9.8 11.9 14.1 13.8 11.3 11.7 12.3 13.4 13.1 11.2 8.5 7.3 8.5 13.7 17.9 22.4 18.0 14.4 14.4 13.6 16.3 20.1 21.4 15.7 10.8 15.5 17.2 15.6 11.9 12.2 9.7 8.4 6.5 9.2 9.7 10.2 10.0
27.2 14.8 8.4 9.4 9.2 9.4 12.7 11.8 11.1 10.6 11.5 10.6 11.3 11.8 13.9 11.6 9.4 10.4 11.0 9.9 10.7 10.1 10.4 10.9 11.7 13.1 14.6 13.6 13.8 13.9 13.1 14.9 14.1 12.5 10.7 10.6 11.0 11.1 12.4 14.3 14.2 14.7 17.1 13.7 14.4 14.6 12.4 10.0 10.1 9.0 8.2 8.3 10.3 10.0
9.0 6.1 5.8 8.1 10.4 13.1 14.2 11.7 11.1 10.8 10.4 10.8 9.8 7.9 8.2 7.3 9.8 9.7 8.2 8.4 7.5 8.0 7.8 8.5 6.6 9.8 11.0 12.5 13.8 16.3 17.1 17.0 15.0 12.5 11.1 10.1 8.1 7.4 10.7 11.9 12.1 12.0 12.3 13.5 12.1 15.0 15.2 15.3 18.1 18.6 15.5 12.7 12.5 13.9
4.4 5.0 8.1 9.3 11.5 12.6 10.9 11.4 11.3 10.7 10.7 10.2 7.4 5.6 5.4 7.3 9.7 9.3 7.7 6.7 6.7 8.0 9.2 9.8 9.8 9.6 10.5 10.1 10.3 9.8 11.6 12.8 19.0 21.6 19.1 13.3 14.1 16.2 16.1 15.5 14.2 13.7 12.3 11.0 12.8 16.0 13.0 13.2 15.1 14.4 12.4 11.6 11.3 11.5
5.6 6.5 7.3 7.7 7.7 7.2 8.5 7.7 7.7 6.3 7.0 6.9 6.7 7.0 6.8 7.5 7.3 8.3 7.1 7.5 7.8 7.7 7.2 6.7 6.4 8.9 10.6 10.4 12.2 12.2 8.3 8.8 11.3 11.9 14.4 16.3 14.2 14.2 15.4 16.3 15.2 14.7 14.0 13.1 11.0 11.4 10.7 10.3 9.9 10.9 10.6 11.1 11.5 11.0
6.5 7.0 6.6 6.7 5.7 6.2 5.9 4.7 4.1 3.3 3.4 3.4 5.1 5.5 6.4 6.7 6.0 4.6 4.6 3.6 3.3 3.7 7.1 8.2 8.6 8.1 12.1 15.0 15.8 17.6 20.1 17.7 12.1 13.1 14.6 15.4 14.8 14.3 15.3 15.9 16.3 16.2 15.3 13.3 11.8 12.5 11.5 11.9 13.1 12.6 12.9 13.4 13.3 12.2
8.0 6.5 5.7 4.6 5.8 5.3 4.8 3.6 3.4 2.8 2.4 2.4 2.3 3.2 3.8 2.9 2.4 2.0 2.4 4.1 7.4 8.1 7.9 9.5 10.6 12.7 14.2 15.6 15.6 15.5 14.1 12.7 14.2 15.1 17.4 18.3 18.6 18.9 18.8 20.8 21.2 16.8 13.3 12.4 13.2 13.9 14.5 13.0 14.1 13.6 13.2 13.1 13.4 12.8